Satellite: PROITERES
Catalog number: 38756
Epoch time:      12285.87837604
Element set:     119
Inclination:      098.2815 deg
RA of node:       352.0513 deg
Eccentricity:    0.0013262
Arg of perigee:   171.6518 deg
Mean anomaly:     188.4915 deg
Mean motion:   14.73908261 rev/day
Decay rate:       8.12e-06 rev/day^2
Epoch rev:             481
Checksum:              306

Satellite: AENEAS
Catalog number: 38760
Epoch time:      12285.63418111
Element set:    0039
Inclination:      064.6742 deg
RA of node:       315.7090 deg
Eccentricity:    0.0218665
Arg of perigee:   281.5750 deg
Mean anomaly:     225.8995 deg
Mean motion:   14.79105703 rev/day
Decay rate:      4.663e-05 rev/day^2
Epoch rev:           00408
Checksum:              305

Satellite: OBJECT D
Catalog number: 38761
Epoch time:      12285.63398458
Element set:    0034
Inclination:      064.6739 deg
RA of node:       315.6908 deg
Eccentricity:    0.0219640
Arg of perigee:   281.6033 deg
Mean anomaly:     237.4379 deg
Mean motion:   14.79182964 rev/day
Decay rate:      3.082e-05 rev/day^2
Epoch rev:           00408
Checksum:              327

Satellite: OBJECT E
Catalog number: 38762
Epoch time:      12285.63371359
Element set:    0034
Inclination:      064.6748 deg
RA of node:       315.6866 deg
Eccentricity:    0.0219416
Arg of perigee:   281.3263 deg
Mean anomaly:     240.4842 deg
Mean motion:   14.79239544 rev/day
Decay rate:      3.677e-05 rev/day^2
Epoch rev:           00408
Checksum:              321

Satellite: OBJECT F
Catalog number: 38763
Epoch time:      12285.63372642
Element set:    0032
Inclination:      064.6740 deg
RA of node:       315.6834 deg
Eccentricity:    0.0219648
Arg of perigee:   281.5472 deg
Mean anomaly:     242.2846 deg
Mean motion:   14.79241291 rev/day
Decay rate:      3.045e-05 rev/day^2
Epoch rev:           00392
Checksum:              301

Satellite: OBJECT G
Catalog number: 38764
Epoch time:      12285.63331274
Element set:    0032
Inclination:      064.6733 deg
RA of node:       315.6795 deg
Eccentricity:    0.0219569
Arg of perigee:   281.6381 deg
Mean anomaly:     240.8814 deg
Mean motion:   14.79251868 rev/day
Decay rate:      2.834e-05 rev/day^2
Epoch rev:           00408
Checksum:              321

Satellite: OBJECT H
Catalog number: 38765
Epoch time:      12285.63079299
Element set:    0037
Inclination:      064.6737 deg
RA of node:       315.6833 deg
Eccentricity:    0.0219324
Arg of perigee:   281.5901 deg
Mean anomaly:     230.2625 deg
Mean motion:   14.79307956 rev/day
Decay rate:      3.771e-05 rev/day^2
Epoch rev:           00408
Checksum:              320

Satellite: OBJECT J
Catalog number: 38766
Epoch time:      12285.62829259
Element set:    0030
Inclination:      064.6721 deg
RA of node:       315.6698 deg
Eccentricity:    0.0219494
Arg of perigee:   281.5491 deg
Mean anomaly:     228.0895 deg
Mean motion:   14.79395065 rev/day
Decay rate:      3.206e-05 rev/day^2
Epoch rev:           00408
Checksum:              331

Satellite: 1998067CN
Catalog number: 38852
Epoch time:      12284.94161481
Element set:    0008
Inclination:      051.6480 deg
RA of node:       266.2171 deg
Eccentricity:    0.0019250
Arg of perigee:   144.9617 deg
Mean anomaly:     215.2645 deg
Mean motion:   15.51537498 rev/day
Decay rate:     3.4078e-04 rev/day^2
Epoch rev:           00091
Checksum:              335

Satellite: 1998067CP
Catalog number: 38853
Epoch time:      12284.94147275
Element set:    0007
Inclination:      051.6475 deg
RA of node:       266.2191 deg
Eccentricity:    0.0014925
Arg of perigee:   157.2300 deg
Mean anomaly:     202.9281 deg
Mean motion:   15.51613332 rev/day
Decay rate:     4.0671e-04 rev/day^2
Epoch rev:           00097
Checksum:              319

Satellite: 1998067CQ
Catalog number: 38854
Epoch time:      12284.87666330
Element set:    0006
Inclination:      051.6479 deg
RA of node:       266.5332 deg
Eccentricity:    0.0014399
Arg of perigee:   152.6575 deg
Mean anomaly:     207.5187 deg
Mean motion:   15.51770880 rev/day
Decay rate:     5.2033e-04 rev/day^2
Epoch rev:           00096
Checksum:              353

Satellite: 1998067CR
Catalog number: 38855
Epoch time:      12284.94118099
Element set:    0008
Inclination:      051.6493 deg
RA of node:       266.2168 deg
Eccentricity:    0.0014236
Arg of perigee:   155.7883 deg
Mean anomaly:     204.3806 deg
Mean motion:   15.51737119 rev/day
Decay rate:     4.9463e-04 rev/day^2
Epoch rev:           00086
Checksum:              357

/EX


_______________________________________________
Via the Keps mailing list courtesy of AMSAT-NA
http://amsat.org/mailman/listinfo/keps

--- ViaMAIL!/WC v1.60d
 * Origin: Chowdanet (401-724-4410) telnet://chowdanet.com  (1:323/120)